Time,TemperatureF,DewpointF,PressureIn,WindDirection,WindDirectionDegrees,WindSpeedMPH,WindSpeedGustMPH,Humidity,HourlyPrecipIn,Conditions,Clouds,dailyrainin,SoftwareType,DateUTC
2015-09-03 00:02:00,74.6,64.0,30.00,SSW,198,0.0,0.0,69,0.00,,,0.00,WUHU21623XXSP,2015-09-03 05:02:00,
2015-09-03 00:07:00,74.4,63.8,30.00,SSW,198,0.0,0.0,69,0.00,,,0.00,WUHU21623XXSP,2015-09-03 05:07:00,
2015-09-03 00:12:00,74.4,64.2,30.00,SSW,198,0.0,0.0,70,0.00,,,0.00,WUHU21623XXSP,2015-09-03 05:12:00,
2015-09-03 00:17:00,74.3,64.1,30.00,SSW,198,0.0,0.0,70,0.00,,,0.00,WUHU21623XXSP,2015-09-03 05:17:00,
2015-09-03 00:22:00,74.1,63.9,30.00,SSW,198,0.0,0.0,70,0.00,,,0.00,WUHU21623XXSP,2015-09-03 05:22:00,
2015-09-03 00:27:00,74.1,63.5,29.99,SSW,198,0.0,0.0,69,0.00,,,0.00,WUHU21623XXSP,2015-09-03 05:27:00,
2015-09-03 00:32:00,73.9,63.7,29.99,SSW,198,0.0,0.0,70,0.00,,,0.00,WUHU21623XXSP,2015-09-03 05:32:00,
2015-09-03 00:37:00,73.9,63.7,29.99,SSW,198,0.0,0.0,70,0.00,,,0.00,WUHU21623XXSP,2015-09-03 05:37:00,
2015-09-03 00:42:00,73.7,63.1,29.99,SSW,198,0.0,0.0,69,0.00,,,0.00,WUHU21623XXSP,2015-09-03 05:42:00,
2015-09-03 00:47:00,73.7,63.1,29.99,SSW,198,0.0,0.0,69,0.00,,,0.00,WUHU21623XXSP,2015-09-03 05:47:00,
2015-09-03 00:52:00,73.7,62.7,29.99,SSW,198,0.0,0.0,68,0.00,,,0.00,WUHU21623XXSP,2015-09-03 05:52:00,
2015-09-03 00:57:00,73.7,62.7,29.99,SSW,198,0.0,0.0,68,0.00,,,0.00,WUHU21623XXSP,2015-09-03 05:57:00,
2015-09-03 01:02:00,73.7,62.7,29.99,SSW,198,0.0,0.0,68,0.00,,,0.00,WUHU21623XXSP,2015-09-03 06:02:00,
2015-09-03 01:07:00,73.7,62.7,29.99,SSW,198,0.0,0.0,68,0.00,,,0.00,WUHU21623XXSP,2015-09-03 06:07:00,
2015-09-03 01:12:00,73.5,62.5,29.99,SSW,198,0.0,0.0,68,0.00,,,0.00,WUHU21623XXSP,2015-09-03 06:12:00,
2015-09-03 01:17:00,73.5,62.1,29.99,SSW,198,0.0,0.0,67,0.00,,,0.00,WUHU21623XXSP,2015-09-03 06:17:00,
2015-09-03 01:23:00,73.4,62.0,29.98,SSW,198,0.0,0.0,67,0.00,,,0.00,WUHU21623XXSP,2015-09-03 06:23:00,
2015-09-03 01:28:00,73.4,62.0,29.98,SSW,198,0.0,0.0,67,0.00,,,0.00,WUHU21623XXSP,2015-09-03 06:28:00,
2015-09-03 01:33:00,73.4,62.0,29.98,SSW,198,0.0,0.0,67,0.00,,,0.00,WUHU21623XXSP,2015-09-03 06:33:00,
2015-09-03 01:38:00,73.2,61.8,29.98,SSW,198,0.0,0.0,67,0.00,,,0.00,WUHU21623XXSP,2015-09-03 06:38:00,
2015-09-03 01:43:00,73.2,61.8,29.98,SW,221,0.0,0.0,67,0.00,,,0.00,WUHU21623XXSP,2015-09-03 06:43:00,
2015-09-03 01:48:00,73.0,61.6,29.97,SW,221,0.0,0.0,67,0.00,,,0.00,WUHU21623XXSP,2015-09-03 06:48:00,
2015-09-03 01:53:00,73.2,61.4,29.97,SSW,198,0.0,0.0,66,0.00,,,0.00,WUHU21623XXSP,2015-09-03 06:53:00,
2015-09-03 01:58:00,73.2,61.4,29.97,South,176,0.0,0.0,66,0.00,,,0.00,WUHU21623XXSP,2015-09-03 06:58:00,
2015-09-03 02:03:00,73.2,60.9,29.97,South,176,0.0,0.0,65,0.00,,,0.00,WUHU21623XXSP,2015-09-03 07:03:00,
2015-09-03 02:08:00,73.2,60.9,29.97,South,176,0.0,0.0,65,0.00,,,0.00,WUHU21623XXSP,2015-09-03 07:08:00,
2015-09-03 02:13:00,73.2,60.9,29.97,South,176,0.0,0.0,65,0.00,,,0.00,WUHU21623XXSP,2015-09-03 07:13:00,
2015-09-03 02:18:00,73.2,60.9,29.97,South,176,0.0,0.0,65,0.00,,,0.00,WUHU21623XXSP,2015-09-03 07:18:00,
2015-09-03 02:23:00,73.2,60.9,29.97,South,176,0.0,0.0,65,0.00,,,0.00,WUHU21623XXSP,2015-09-03 07:23:00,
2015-09-03 02:28:00,73.4,60.7,29.97,South,176,0.0,0.0,64,0.00,,,0.00,WUHU21623XXSP,2015-09-03 07:28:00,
2015-09-03 02:33:00,73.4,60.7,29.97,SSW,198,0.0,0.0,64,0.00,,,0.00,WUHU21623XXSP,2015-09-03 07:33:00,
2015-09-03 02:38:00,73.5,60.3,29.97,SSW,198,0.0,0.0,63,0.00,,,0.00,WUHU21623XXSP,2015-09-03 07:38:00,
2015-09-03 02:43:00,73.5,60.3,29.97,SSW,198,0.0,0.0,63,0.00,,,0.00,WUHU21623XXSP,2015-09-03 07:43:00,
2015-09-03 02:48:00,73.4,60.2,29.97,SSW,198,0.0,0.0,63,0.00,,,0.00,WUHU21623XXSP,2015-09-03 07:48:00,
2015-09-03 02:53:00,73.4,60.7,29.97,SSW,198,0.0,0.0,64,0.00,,,0.00,WUHU21623XXSP,2015-09-03 07:53:00,
2015-09-03 02:58:00,73.2,60.5,29.97,SSW,198,0.0,0.0,64,0.00,,,0.00,WUHU21623XXSP,2015-09-03 07:58:00,
2015-09-03 03:03:00,73.0,60.3,29.97,SSW,198,0.0,0.0,64,0.00,,,0.00,WUHU21623XXSP,2015-09-03 08:03:00,
2015-09-03 03:08:00,73.2,60.1,29.97,South,176,0.0,0.0,63,0.00,,,0.00,WUHU21623XXSP,2015-09-03 08:08:00,
2015-09-03 03:13:00,73.4,59.8,29.97,South,176,0.0,0.0,62,0.00,,,0.00,WUHU21623XXSP,2015-09-03 08:13:00,
2015-09-03 03:18:00,73.4,59.8,29.97,South,176,0.0,0.0,62,0.00,,,0.00,WUHU21623XXSP,2015-09-03 08:18:00,
2015-09-03 03:23:00,73.2,59.6,29.97,South,176,0.0,0.0,62,0.00,,,0.00,WUHU21623XXSP,2015-09-03 08:23:00,
2015-09-03 03:28:00,73.0,59.4,29.97,South,176,0.0,0.0,62,0.00,,,0.00,WUHU21623XXSP,2015-09-03 08:28:00,
2015-09-03 03:33:00,72.8,59.2,29.97,South,176,0.0,0.0,62,0.00,,,0.00,WUHU21623XXSP,2015-09-03 08:33:00,
2015-09-03 03:38:00,72.8,59.2,29.97,SW,221,3.1,5.1,62,0.00,,,0.00,WUHU21623XXSP,2015-09-03 08:38:00,
2015-09-03 03:43:00,73.0,59.4,29.97,SSW,198,0.0,5.1,62,0.00,,,0.00,WUHU21623XXSP,2015-09-03 08:43:00,
2015-09-03 03:48:00,73.2,59.6,29.98,SSW,198,1.6,5.1,62,0.00,,,0.00,WUHU21623XXSP,2015-09-03 08:48:00,
2015-09-03 03:53:00,73.4,59.8,29.97,SSW,198,0.0,4.3,62,0.00,,,0.00,WUHU21623XXSP,2015-09-03 08:53:00,
2015-09-03 03:58:00,73.4,59.8,29.97,SW,221,3.1,3.4,62,0.00,,,0.00,WUHU21623XXSP,2015-09-03 08:58:00,
2015-09-03 04:03:00,73.2,59.1,29.97,SW,221,0.0,4.0,61,0.00,,,0.00,WUHU21623XXSP,2015-09-03 09:03:00,
2015-09-03 04:08:00,73.4,59.3,29.97,SW,221,0.0,4.0,61,0.00,,,0.00,WUHU21623XXSP,2015-09-03 09:08:00,
2015-09-03 04:13:00,73.4,59.8,29.97,SW,221,0.0,2.2,62,0.00,,,0.00,WUHU21623XXSP,2015-09-03 09:13:00,
2015-09-03 04:18:00,73.2,59.6,29.97,SW,221,0.0,0.0,62,0.00,,,0.00,WUHU21623XXSP,2015-09-03 09:18:00,
2015-09-03 04:23:00,73.2,59.6,29.97,SW,221,0.0,0.0,62,0.00,,,0.00,WUHU21623XXSP,2015-09-03 09:23:00,
2015-09-03 04:28:00,73.0,59.4,29.97,SW,221,0.0,0.7,62,0.00,,,0.00,WUHU21623XXSP,2015-09-03 09:28:00,
2015-09-03 04:33:00,73.2,59.6,29.97,SW,221,0.4,2.2,62,0.00,,,0.00,WUHU21623XXSP,2015-09-03 09:33:00,
2015-09-03 04:38:00,73.2,59.1,29.97,SW,221,0.0,2.2,61,0.00,,,0.00,WUHU21623XXSP,2015-09-03 09:38:00,
2015-09-03 04:43:00,73.2,59.1,29.97,SSW,198,0.0,0.7,61,0.00,,,0.00,WUHU21623XXSP,2015-09-03 09:43:00,
2015-09-03 04:48:00,73.0,59.0,29.98,SSW,198,0.0,0.0,61,0.00,,,0.00,WUHU21623XXSP,2015-09-03 09:48:00,
2015-09-03 04:53:00,73.0,59.4,29.97,SSW,198,0.0,0.0,62,0.00,,,0.00,WUHU21623XXSP,2015-09-03 09:53:00,
2015-09-03 04:58:00,73.0,59.4,29.97,SSW,198,0.0,0.0,62,0.00,,,0.00,WUHU21623XXSP,2015-09-03 09:58:00,
2015-09-03 05:03:00,73.0,59.0,29.97,SSW,198,0.0,0.0,61,0.00,,,0.00,WUHU21623XXSP,2015-09-03 10:03:00,
2015-09-03 05:08:00,73.0,59.0,29.97,SSW,198,0.0,0.0,61,0.00,,,0.00,WUHU21623XXSP,2015-09-03 10:08:00,
2015-09-03 05:13:00,73.0,59.0,29.97,SSW,198,0.0,0.0,61,0.00,,,0.00,WUHU21623XXSP,2015-09-03 10:13:00,
2015-09-03 05:18:00,73.0,59.4,29.97,SSW,198,0.0,0.0,62,0.00,,,0.00,WUHU21623XXSP,2015-09-03 10:18:00,
2015-09-03 05:23:00,73.0,59.4,29.97,SSW,198,0.0,0.0,62,0.00,,,0.00,WUHU21623XXSP,2015-09-03 10:23:00,
2015-09-03 05:28:00,72.8,59.2,29.98,SSW,198,0.0,0.0,62,0.00,,,0.00,WUHU21623XXSP,2015-09-03 10:28:00,
2015-09-03 05:33:00,72.8,59.2,29.98,SSW,198,0.0,0.0,62,0.00,,,0.00,WUHU21623XXSP,2015-09-03 10:33:00,
2015-09-03 05:38:00,72.6,59.0,29.98,SSW,198,0.0,0.0,62,0.00,,,0.00,WUHU21623XXSP,2015-09-03 10:38:00,
2015-09-03 05:43:00,72.5,58.9,29.98,SSW,198,0.0,0.0,62,0.00,,,0.00,WUHU21623XXSP,2015-09-03 10:43:00,
2015-09-03 05:48:00,72.5,58.9,29.98,SSW,198,0.0,0.0,62,0.00,,,0.00,WUHU21623XXSP,2015-09-03 10:48:00,
2015-09-03 05:53:00,72.5,58.9,29.99,SSW,198,0.0,0.0,62,0.00,,,0.00,WUHU21623XXSP,2015-09-03 10:53:00,
2015-09-03 05:58:00,72.3,58.7,29.99,SSW,198,0.0,0.0,62,0.00,,,0.00,WUHU21623XXSP,2015-09-03 10:58:00,
2015-09-03 06:03:00,72.1,58.6,29.99,SSW,198,0.0,0.0,62,0.00,,,0.00,WUHU21623XXSP,2015-09-03 11:03:00,
2015-09-03 06:08:00,72.1,58.6,29.99,SSW,198,0.0,0.0,62,0.00,,,0.00,WUHU21623XXSP,2015-09-03 11:08:00,
2015-09-03 06:13:00,71.9,58.4,29.99,South,176,0.0,4.5,62,0.00,,,0.00,WUHU21623XXSP,2015-09-03 11:13:00,
2015-09-03 06:18:00,71.9,58.4,29.99,South,176,0.0,4.5,62,0.00,,,0.00,WUHU21623XXSP,2015-09-03 11:18:00,
2015-09-03 06:23:00,71.7,58.2,29.99,South,176,0.0,0.0,62,0.00,,,0.00,WUHU21623XXSP,2015-09-03 11:23:00,
2015-09-03 06:28:00,71.7,58.2,29.99,South,176,2.0,4.3,62,0.00,,,0.00,WUHU21623XXSP,2015-09-03 11:28:00,
2015-09-03 06:33:00,71.7,58.2,30.00,South,176,1.8,4.3,62,0.00,,,0.00,WUHU21623XXSP,2015-09-03 11:33:00,
2015-09-03 06:38:00,71.9,58.4,30.00,South,176,0.0,4.3,62,0.00,,,0.00,WUHU21623XXSP,2015-09-03 11:38:00,
2015-09-03 06:43:00,71.7,58.2,30.00,South,176,0.0,0.0,62,0.00,,,0.00,WUHU21623XXSP,2015-09-03 11:43:00,
2015-09-03 06:48:00,71.7,58.2,30.00,South,176,0.0,0.0,62,0.00,,,0.00,WUHU21623XXSP,2015-09-03 11:48:00,
2015-09-03 06:53:00,71.7,58.2,30.00,South,176,0.0,0.0,62,0.00,,,0.00,WUHU21623XXSP,2015-09-03 11:53:00,
2015-09-03 06:58:00,71.7,58.2,30.00,South,176,0.0,0.0,62,0.00,,,0.00,WUHU21623XXSP,2015-09-03 11:58:00,
2015-09-03 07:03:00,71.7,58.2,30.00,South,176,0.0,0.0,62,0.00,,,0.00,WUHU21623XXSP,2015-09-03 12:03:00,
2015-09-03 07:08:00,71.7,57.7,30.01,South,176,0.0,0.0,61,0.00,,,0.00,WUHU21623XXSP,2015-09-03 12:08:00,
2015-09-03 07:13:00,72.1,58.1,30.01,South,176,0.0,0.0,61,0.00,,,0.00,WUHU21623XXSP,2015-09-03 12:13:00,
2015-09-03 07:18:00,72.8,58.8,30.02,South,176,0.0,0.0,61,0.00,,,0.00,WUHU21623XXSP,2015-09-03 12:18:00,
2015-09-03 07:23:00,73.7,59.6,30.02,South,176,0.0,0.0,61,0.00,,,0.00,WUHU21623XXSP,2015-09-03 12:23:00,
2015-09-03 07:28:00,74.4,60.3,30.02,South,176,0.0,0.0,61,0.00,,,0.00,WUHU21623XXSP,2015-09-03 12:28:00,
2015-09-03 07:33:00,75.0,60.8,30.02,South,176,0.0,0.0,61,0.00,,,0.00,WUHU21623XXSP,2015-09-03 12:33:00,
2015-09-03 07:38:00,75.5,61.3,30.02,South,176,0.0,0.0,61,0.00,,,0.00,WUHU21623XXSP,2015-09-03 12:38:00,
2015-09-03 07:43:00,76.2,62.0,30.02,South,176,0.0,0.0,61,0.00,,,0.00,WUHU21623XXSP,2015-09-03 12:43:00,
2015-09-03 07:48:00,77.0,62.7,30.02,South,176,0.0,0.0,61,0.00,,,0.00,WUHU21623XXSP,2015-09-03 12:48:00,
2015-09-03 07:53:00,78.0,63.7,30.02,SSW,198,0.0,0.0,61,0.00,,,0.00,WUHU21623XXSP,2015-09-03 12:53:00,
2015-09-03 07:58:00,79.1,65.2,30.02,SSW,198,0.0,0.0,62,0.00,,,0.00,WUHU21623XXSP,2015-09-03 12:58:00,
2015-09-03 08:03:00,80.0,66.5,30.02,SSW,198,0.0,0.0,63,0.00,,,0.00,WUHU21623XXSP,2015-09-03 13:03:00,
2015-09-03 08:08:00,80.6,68.4,30.02,SSW,198,0.0,0.0,66,0.00,,,0.00,WUHU21623XXSP,2015-09-03 13:08:00,
2015-09-03 08:13:00,80.9,70.0,30.02,SSW,198,0.0,0.0,69,0.00,,,0.00,WUHU21623XXSP,2015-09-03 13:13:00,
2015-09-03 08:18:00,81.6,71.1,30.02,SSW,198,0.0,0.0,70,0.00,,,0.00,WUHU21623XXSP,2015-09-03 13:18:00,
2015-09-03 08:23:00,81.8,71.7,30.02,SW,221,1.1,1.6,71,0.00,,,0.00,WUHU21623XXSP,2015-09-03 13:23:00,
2015-09-03 08:28:00,81.6,71.5,30.01,NNW,333,1.3,3.1,71,0.00,,,0.00,WUHU21623XXSP,2015-09-03 13:28:00,
2015-09-03 08:33:00,81.6,71.5,30.01,NNE,18,0.7,3.1,71,0.00,,,0.00,WUHU21623XXSP,2015-09-03 13:33:00,
2015-09-03 08:38:00,81.3,71.2,30.02,NNE,18,0.0,2.7,71,0.00,,,0.00,WUHU21623XXSP,2015-09-03 13:38:00,
2015-09-03 08:43:00,81.6,71.5,30.01,NNE,18,4.5,4.7,71,0.00,,,0.00,WUHU21623XXSP,2015-09-03 13:43:00,
2015-09-03 08:48:00,81.8,71.7,30.01,North,356,5.6,6.9,71,0.00,,,0.00,WUHU21623XXSP,2015-09-03 13:48:00,
2015-09-03 08:53:00,81.6,71.5,30.01,NNE,18,3.6,6.9,71,0.00,,,0.00,WUHU21623XXSP,2015-09-03 13:53:00,
2015-09-03 08:58:00,82.0,71.9,30.01,North,356,4.0,6.3,71,0.00,,,0.00,WUHU21623XXSP,2015-09-03 13:58:00,
2015-09-03 09:03:00,82.5,72.4,30.00,North,356,5.4,6.5,71,0.00,,,0.00,WUHU21623XXSP,2015-09-03 14:03:00,
2015-09-03 09:08:00,82.9,72.8,30.00,NNE,18,2.5,6.5,71,0.00,,,0.00,WUHU21623XXSP,2015-09-03 14:08:00,
2015-09-03 09:13:00,83.6,73.4,30.01,North,356,0.0,6.5,71,0.00,,,0.00,WUHU21623XXSP,2015-09-03 14:13:00,
2015-09-03 09:18:00,84.0,73.0,30.00,NNE,18,9.4,11.4,69,0.00,,,0.00,WUHU21623XXSP,2015-09-03 14:18:00,
2015-09-03 09:23:00,83.8,72.8,30.00,NNE,18,4.5,11.4,69,0.00,,,0.00,WUHU21623XXSP,2015-09-03 14:23:00,
2015-09-03 09:28:00,84.3,73.3,30.00,North,356,5.6,9.2,69,0.00,,,0.00,WUHU21623XXSP,2015-09-03 14:28:00,
2015-09-03 09:33:00,84.9,74.3,30.00,North,356,0.0,8.1,70,0.00,,,0.00,WUHU21623XXSP,2015-09-03 14:33:00,
2015-09-03 09:38:00,85.8,74.3,30.00,North,356,2.7,6.3,68,0.00,,,0.00,WUHU21623XXSP,2015-09-03 14:38:00,
2015-09-03 09:43:00,86.0,74.0,30.00,NNE,18,0.0,7.6,67,0.00,,,0.00,WUHU21623XXSP,2015-09-03 14:43:00,
2015-09-03 09:48:00,86.0,73.6,30.00,NNE,18,7.2,8.3,66,0.00,,,0.00,WUHU21623XXSP,2015-09-03 14:48:00,
2015-09-03 09:53:00,85.6,73.2,30.00,NNE,18,6.3,10.7,66,0.00,,,0.00,WUHU21623XXSP,2015-09-03 14:53:00,
2015-09-03 09:58:00,85.4,73.0,30.00,North,356,6.3,10.7,66,0.00,,,0.00,WUHU21623XXSP,2015-09-03 14:58:00,
2015-09-03 10:03:00,85.8,73.8,30.00,North,356,6.3,10.5,67,0.00,,,0.00,WUHU21623XXSP,2015-09-03 15:03:00,
2015-09-03 10:08:00,86.1,73.7,30.00,NNE,18,4.9,8.9,66,0.00,,,0.00,WUHU21623XXSP,2015-09-03 15:08:00,
2015-09-03 10:13:00,86.5,74.1,30.00,NNE,18,6.0,8.9,66,0.00,,,0.00,WUHU21623XXSP,2015-09-03 15:13:00,
2015-09-03 10:18:00,87.0,74.1,30.00,ENE,63,3.8,7.4,65,0.00,,,0.00,WUHU21623XXSP,2015-09-03 15:18:00,
2015-09-03 10:23:00,87.2,74.3,30.00,North,356,3.6,8.1,65,0.00,,,0.00,WUHU21623XXSP,2015-09-03 15:23:00,
2015-09-03 10:28:00,87.6,74.2,30.00,NNW,333,2.5,8.1,64,0.00,,,0.00,WUHU21623XXSP,2015-09-03 15:28:00,
2015-09-03 10:33:00,88.1,74.2,30.00,North,356,8.5,8.5,63,0.00,,,0.00,WUHU21623XXSP,2015-09-03 15:33:00,
2015-09-03 10:38:00,88.1,74.2,30.00,NW,311,1.6,8.7,63,0.00,,,0.00,WUHU21623XXSP,2015-09-03 15:38:00,
2015-09-03 10:43:00,89.0,74.6,30.00,NNE,18,4.9,8.7,62,0.00,,,0.00,WUHU21623XXSP,2015-09-03 15:43:00,
2015-09-03 10:48:00,89.4,75.0,30.00,NE,41,0.7,7.2,62,0.00,,,0.00,WUHU21623XXSP,2015-09-03 15:48:00,
2015-09-03 10:53:00,89.4,74.5,30.00,NNE,18,0.0,5.8,61,0.00,,,0.00,WUHU21623XXSP,2015-09-03 15:53:00,
2015-09-03 10:58:00,89.7,75.3,30.00,North,356,2.2,3.8,62,0.00,,,0.00,WUHU21623XXSP,2015-09-03 15:58:00,
2015-09-03 11:03:00,90.8,75.8,30.00,NE,41,0.0,4.3,61,0.00,,,0.00,WUHU21623XXSP,2015-09-03 16:03:00,
2015-09-03 11:09:00,90.8,74.8,30.00,ENE,63,0.0,5.4,59,0.00,,,0.00,WUHU21623XXSP,2015-09-03 16:09:00,
2015-09-03 11:14:00,90.8,74.8,29.99,NNE,18,0.0,5.4,59,0.00,,,0.00,WUHU21623XXSP,2015-09-03 16:14:00,
2015-09-03 11:19:00,91.2,74.7,29.99,ENE,63,5.4,7.6,58,0.00,,,0.00,WUHU21623XXSP,2015-09-03 16:19:00,
2015-09-03 11:24:00,91.0,73.9,30.00,NE,41,0.0,7.8,57,0.00,,,0.00,WUHU21623XXSP,2015-09-03 16:24:00,
2015-09-03 11:29:00,90.8,74.3,30.00,SSW,198,0.0,7.8,58,0.00,,,0.00,WUHU21623XXSP,2015-09-03 16:29:00,
2015-09-03 11:34:00,91.5,75.5,29.99,SE,131,0.0,2.2,59,0.00,,,0.00,WUHU21623XXSP,2015-09-03 16:34:00,
2015-09-03 11:39:00,92.1,74.4,29.99,ESE,108,3.6,3.8,56,0.00,,,0.00,WUHU21623XXSP,2015-09-03 16:39:00,